Location: Gandikunta
(16.3784°N, 80.8378°E)
Time: 00:28:11
(UTC+00:00)

Okean O Rocket - Pass Details

Date: 19 May 2025
Orbit: 614 x 636 km, 98.0° (Epoch: 18 June)

Event Time Altitude Azimuth Distance (km) Brightness Sun altitude
Exits shadow 15:05:38 20° 21° (NNE) 1,474 3.6 -27.4°
Drops below altitude 10° 15:07:07 10° 9° (N) 1,998 4.4 -27.7°
Sets 15:09:26 0° 1° (N) 2,902 5.4 -28.2°
